Torna al catalogo

SL-12 R/B(2)

AttivoMEO
NORAD 16968·ROCKET BODY·🇷🇺 Russia

Lanciato Sep 16, 1986 da Baikonur Cosmodrome

Loading…

Prossimi Passaggi (prossime 24 ore)

TLE

AggiornatoSource: Space-Track

Epoca: Sep 14, 2026, 03:40 UTC

1 16968U 86071F   26257.15279043 -.00000012  00000-0  00000-0 0  9999
2 16968  64.9667  68.3700 0026223 220.4538 140.9375  2.13265522311500

Traccia SL-12 R/B(2) in tempo reale con AllMySat

Download on the App Store